Location: Aulagny
(45.1643°N, 4.3096°E)
Time: 09:35:41
(UTC+00:00)

CZ-2C R/B - Pass Details

Date: 21 October 2019
Orbit: 703 x 909 km, 98.1° (Epoch: 17 November)

Event Time Altitude Azimuth Distance (km) Brightness Sun altitude
Exits shadow 19:38:10 33° 9° (N) 1,472 4.4 -30.5°
Drops below altitude 10° 19:41:21 10° 354° (N) 2,571 5.9 -31.0°
Sets 19:43:46 0° 351° (N) 3,496 6.7 -31.4°
